This is the latest recevied weather packets stored in our database for station/object N8JE-13. If no packets are shown the sender has not sent any weather packets the latest 10 day(s).
| Time | Temp. | Humidity | Pressure | Rain* | Wind** | Luminosity | Snow |
|---|---|---|---|---|---|---|---|
| 1777455692 | 11.67° C | 93% | 1009.3 hPa | 0.25 mm | - | - | - |
| 1777455393 | 11.67° C | 93% | 1009.3 hPa | 0.51 mm | - | - | - |
| 1777455093 | 11.67° C | 93% | 1009.4 hPa | 0.51 mm | - | - | - |
| 1777454793 | 11.67° C | 93% | 1009.6 hPa | 1.02 mm | - | - | - |
| 1777454493 | 11.67° C | 93% | 1009.4 hPa | 1.02 mm | - | - | - |
| 1777454194 | 12.22° C | 93% | 1009.6 hPa | 1.27 mm | - | - | - |
| 1777453893 | 12.22° C | 93% | 1009.7 hPa | 1.78 mm | - | - | - |
| 1777453592 | 12.22° C | 93% | 1009.9 hPa | 2.03 mm | - | - | - |
| 1777453293 | 12.22° C | 93% | 1010.1 hPa | 2.29 mm | - | - | - |
| 1777452993 | 12.22° C | 93% | 1010.2 hPa | 2.79 mm | - | - | - |
| 1777452693 | 12.22° C | 93% | 1010.4 hPa | 3.05 mm | - | - | - |
| 1777452392 | 12.22° C | 92% | 1010.5 hPa | 3.05 mm | - | - | - |
| 1777452093 | 12.22° C | 93% | 1010.8 hPa | 3.05 mm | - | - | - |
| 1777451792 | 12.22° C | 92% | 1010.7 hPa | 3.05 mm | - | - | - |
| 1777451492 | 12.22° C | 92% | 1010.6 hPa | 3.05 mm | - | - | - |
| 1777451192 | 12.22° C | 92% | 1010.9 hPa | 2.54 mm | - | - | - |
| 1777450892 | 12.22° C | 92% | 1010.9 hPa | 2.54 mm | - | - | - |
| 1777450593 | 12.78° C | 92% | 1011 hPa | 2.29 mm | - | - | - |
| 1777450292 | 12.78° C | 92% | 1011 hPa | 1.78 mm | - | - | - |
| 1777449993 | 12.78° C | 91% | 1011.1 hPa | 1.52 mm | - | - | - |
| 1777449692 | 12.78° C | 91% | 1011.4 hPa | 1.02 mm | - | - | - |
| 1777449393 | 12.78° C | 91% | 1011.6 hPa | 0.51 mm | - | - | - |
| 1777449093 | 12.78° C | 91% | 1011.3 hPa | 0.25 mm | - | - | - |
| 1777448794 | 12.78° C | 91% | 1011.5 hPa | 0.25 mm | - | - | - |
| 1777448493 | 12.78° C | 90% | 1011.7 hPa | 0.25 mm | - | - | - |
* Rain latest hour (hover to see other rain measurements)
** Current wind speed in m/s (hover to see current wind gust speed)